EST,Max TemperatureF,Mean TemperatureF,Min TemperatureF,Max Dew PointF,MeanDew PointF,Min DewpointF,Max Humidity, Mean Humidity, Min Humidity, Max Sea Level PressureIn, Mean Sea Level PressureIn, Min Sea Level PressureIn, Max VisibilityMiles, Mean VisibilityMiles, Min VisibilityMiles, Max Wind SpeedMPH, Mean Wind SpeedMPH, Max Gust SpeedMPH,PrecipitationIn, CloudCover, Events, WindDirDegrees
2012-1-1,60,46,32,45,33,18,85,66,46,30.10,29.91,29.65,10,9,1,24,8,41,0.06,5,Rain-Snow,233
2012-1-2,34,29,23,25,20,13,84,65,45,30.05,29.96,29.88,10,5,0,21,7,36,0.05,8,Fog-Snow,258
2012-1-3,23,18,13,18,12,4,84,70,56,30.34,30.15,30.00,10,5,0,16,7,24,0.07,7,Fog-Snow,292
2012-1-4,32,20,8,24,13,6,84,60,36,30.31,30.14,29.98,10,10,9,15,6,24,T,3,Snow,205
2012-1-5,41,36,31,26,23,21,78,63,48,30.10,30.01,29.94,10,10,10,10,6,16,0.00,3,,218
2012-1-6,59,49,39,29,26,21,49,39,28,29.96,29.89,29.82,10,10,10,15,8,24,0.00,0,,202
2012-1-7,57,45,33,41,29,20,64,45,26,30.14,29.93,29.82,10,10,10,14,5,25,0.00,2,,248
2012-1-8,42,35,28,29,26,24,85,70,54,30.35,30.29,30.15,10,10,10,7,1,13,0.00,4,,268
2012-1-9,46,38,29,29,26,23,85,63,41,30.30,30.15,30.04,10,10,9,9,2,13,0.00,4,,198
2012-1-10,49,40,31,31,28,26,82,62,42,30.10,30.05,30.01,10,10,9,10,4,16,0.00,1,,209
2012-1-11,47,37,26,40,33,23,85,65,45,29.99,29.73,29.46,10,8,2,24,6,37,0.41,5,Rain,111
2012-1-12,47,41,35,45,41,31,93,86,79,29.51,29.46,29.35,10,8,2,18,6,29,0.17,8,Rain,201
2012-1-13,35,27,18,28,15,10,85,72,59,30.05,29.71,29.48,10,4,0,22,11,37,0.02,8,Snow,231
2012-1-14,25,23,20,16,14,12,77,69,60,30.21,30.11,30.06,10,7,2,13,5,18,T,8,Snow,239
2012-1-15,25,20,15,16,13,10,88,74,60,30.55,30.42,30.18,10,8,2,8,2,12,T,7,Snow,184
2012-1-16,52,35,18,38,21,10,82,53,24,30.46,30.23,30.02,10,10,5,20,6,29,0.13,4,Rain,177
2012-1-17,57,48,39,48,43,24,93,78,62,30.00,29.81,29.66,10,8,2,23,9,33,0.51,8,Rain,228
2012-1-18,39,30,21,30,22,12,84,66,47,30.19,30.06,29.94,10,8,1,15,4,24,0.02,7,Snow,286
2012-1-19,38,29,19,28,20,8,92,61,29,30.16,30.00,29.90,10,6,1,18,7,29,0.10,5,Snow,233
2012-1-20,35,23,11,29,17,7,92,74,55,30.30,30.10,29.89,10,7,1,13,4,16,0.10,6,Rain-Snow,4
2012-1-21,33,30,26,30,27,21,92,88,84,30.30,29.99,29.81,10,4,2,12,5,15,0.25,8,Rain,1
2012-1-22,45,34,22,34,28,20,92,79,65,30.28,30.20,30.07,10,9,5,15,5,21,0.00,1,,114
2012-1-23,66,54,42,47,41,35,83,63,42,30.05,29.84,29.65,10,10,3,22,10,37,0.18,3,Rain,183
2012-1-24,52,44,36,35,31,28,75,60,44,30.33,30.13,29.95,10,10,10,15,6,23,0.00,6,,249
2012-1-25,49,41,33,32,29,27,82,66,50,30.39,30.29,30.17,10,9,6,12,2,15,0.01,6,Rain,9
2012-1-26,60,48,35,54,43,32,93,89,85,30.16,29.87,29.52,10,5,0,16,4,24,0.60,8,Fog-Rain,125
2012-1-27,61,48,34,54,39,30,92,82,72,30.08,29.75,29.40,10,9,2,21,6,38,0.47,8,Rain-Snow,231
2012-1-28,43,38,32,36,27,12,89,64,38,30.22,30.04,29.91,10,10,7,18,7,31,0.02,5,Rain,222
2012-1-29,44,35,26,30,19,11,85,56,27,30.27,30.16,29.99,10,8,0,22,8,37,0.05,4,Fog-Rain-Snow,237
2012-1-30,50,36,21,22,19,15,84,58,32,30.38,30.27,30.17,10,10,9,14,6,20,0.00,3,,207
2012-1-31,63,55,47,32,23,20,37,29,20,30.22,30.13,30.04,10,10,10,17,8,25,T,4,,210